Weather History for Camdenton, MO

Change the Weather History Date:

Saturday, February 22, 2014

  Actual Average (KAIZ) Record (KAIZ)
Temperature  
Mean Temperature 46 °F -  
Max Temperature 60 °F 46 °F 66 °F (2012)
Min Temperature 33 °F 28 °F 19 °F (1999)
Degree Days  
Heating Degree Days 18    
Moisture  
Dew Point 25 °F    
Average Humidity 44    
Maximum Humidity 87    
Minimum Humidity 27    
Precipitation  
Precipitation 0.00 in - - ()
Sea Level Pressure  
Sea Level Pressure 29.94 in    
Wind  
Wind Speed 6 mph (NW)    
Max Wind Speed 13 mph    
Max Gust Speed 20 mph    
Visibility 10 miles    
Events      
Averages and records for this station are not official NWS values.
T = Trace of Precipitation, MM = Missing Value Source: NWS Daily Summary

Daily Weather History Graph

Daily Weather History Graph

Search for Another Location

Airport:

Trip Planner

Search our weather history database for the weather conditions in past years. The results will help you decide how hot, cold, wet, or windy it might be!

Date:

Astronomy

Feb. 22, 2014 Rise Set
Actual Time 6:51 AM CST 5:57 PM CST
Civil Twilight 6:25 AM CST 6:23 PM CST
Nautical Twilight 5:54 AM CST 6:54 PM CST
Astronomical Twilight 5:24 AM CST 7:24 PM CST
Moon 12:45 AM CST (2/22) 11:10 AM CST (2/22)
Length of Visible Light 11h 58m
Length of Day
11h 05m
Waning Gibbous, 50% of the Moon is Illuminated
Feb 22
Waning Gibbous
Mar 1
New
Mar 8
First Quarter
Mar 16
Full
Mar 23
Last Quarter

Hourly Weather History & Observations

Time (CST) Temp. Windchill Dew Point Humidity Pressure Visibility Wind Dir Wind Speed Gust Speed Precip Events Conditions
12:15 AM 42.8 °F 40.1 °F 17.6 °F 36% 29.96 in 10.0 mi SW 4.6 mph - N/A   Clear
12:35 AM 42.8 °F 39.3 °F 19.4 °F 39% 29.96 in 10.0 mi SW 5.8 mph - N/A   Clear
12:55 AM 42.8 °F 40.1 °F 19.4 °F 39% 29.96 in 10.0 mi SW 4.6 mph - N/A   Clear
1:15 AM 42.8 °F 38.6 °F 17.6 °F 36% 29.96 in 10.0 mi SSW 6.9 mph - N/A   Clear
1:35 AM 42.8 °F 39.3 °F 17.6 °F 36% 29.96 in 10.0 mi SW 5.8 mph - N/A   Clear
1:55 AM 42.8 °F 40.1 °F 17.6 °F 36% 29.95 in 10.0 mi SW 4.6 mph - N/A   Clear
2:15 AM 42.8 °F 38.6 °F 17.6 °F 36% 29.95 in 10.0 mi SSW 6.9 mph - N/A   Clear
2:35 AM 42.8 °F 38.0 °F 17.6 °F 36% 29.96 in 10.0 mi SSW 8.1 mph - N/A   Clear
2:55 AM 42.8 °F 38.6 °F 17.6 °F 36% 29.95 in 10.0 mi SSW 6.9 mph - N/A   Clear
3:15 AM 42.8 °F 40.1 °F 17.6 °F 36% 29.96 in 10.0 mi WSW 4.6 mph - N/A   Clear
3:35 AM 41.0 °F 38.0 °F 17.6 °F 39% 29.96 in 10.0 mi SSW 4.6 mph - N/A   Clear
3:55 AM 41.0 °F 38.0 °F 17.6 °F 39% 29.96 in 10.0 mi SSW 4.6 mph - N/A   Clear
4:15 AM 41.0 °F 38.0 °F 17.6 °F 39% 29.96 in 10.0 mi SSW 4.6 mph - N/A   Clear
4:35 AM 41.0 °F 37.1 °F 17.6 °F 39% 29.96 in 10.0 mi SSW 5.8 mph - N/A   Clear
4:55 AM 41.0 °F 38.0 °F 17.6 °F 39% 29.96 in 10.0 mi SSW 4.6 mph - N/A   Clear
5:15 AM 41.0 °F - 17.6 °F 39% 29.96 in 10.0 mi Calm Calm - N/A   Clear
5:35 AM 39.2 °F 37.0 °F 17.6 °F 42% 29.97 in 10.0 mi South 3.5 mph - N/A   Clear
5:55 AM 35.6 °F 32.8 °F 17.6 °F 48% 29.97 in 10.0 mi South 3.5 mph - N/A   Clear
6:15 AM 33.8 °F - 19.4 °F 56% 29.97 in 10.0 mi Calm Calm - N/A   Clear
6:35 AM 33.8 °F - 19.4 °F 56% 29.97 in 10.0 mi Calm Calm - N/A   Clear
6:55 AM 33.8 °F 30.8 °F 19.4 °F 56% 29.96 in 10.0 mi SE 3.5 mph - N/A   Clear
7:15 AM 33.8 °F 30.8 °F 19.4 °F 56% 29.97 in 10.0 mi ESE 3.5 mph - N/A   Clear
7:35 AM 33.8 °F 29.6 °F 19.4 °F 56% 29.97 in 10.0 mi SE 4.6 mph - N/A   Clear
7:55 AM 35.6 °F 31.7 °F 21.2 °F 56% 29.96 in 10.0 mi SE 4.6 mph - N/A   Clear
8:15 AM 39.2 °F 37.0 °F 24.8 °F 56% 29.96 in 10.0 mi SE 3.5 mph - N/A   Clear
8:35 AM 42.8 °F 39.3 °F 24.8 °F 49% 29.96 in 10.0 mi SE 5.8 mph - N/A   Clear
8:55 AM 48.2 °F - 24.8 °F 40% 29.95 in 10.0 mi South 10.4 mph 17.3 mph N/A   Clear
9:15 AM 53.6 °F - 23.0 °F 30% 29.95 in 10.0 mi South 12.7 mph 17.3 mph N/A   Clear
9:35 AM 57.2 °F - 24.8 °F 29% 29.95 in 10.0 mi SSW 11.5 mph - N/A   Clear
9:55 AM 57.2 °F - 24.8 °F 29% 29.95 in 10.0 mi SSW 12.7 mph 19.6 mph N/A   Clear
10:15 AM 57.2 °F - 24.8 °F 29% 29.94 in 10.0 mi SSW 12.7 mph 18.4 mph N/A   Clear
10:35 AM 59.0 °F - 24.8 °F 27% 29.94 in 10.0 mi South 9.2 mph 19.6 mph N/A   Clear
10:55 AM 60.8 °F - 26.6 °F 27% 29.93 in 10.0 mi SW 9.2 mph - N/A   Clear
11:15 AM 60.8 °F - 26.6 °F 27% 29.93 in 10.0 mi SW 11.5 mph 17.3 mph N/A   Scattered Clouds
11:35 AM 60.8 °F - 26.6 °F 27% 29.92 in 10.0 mi SSW 6.9 mph - N/A   Scattered Clouds
11:55 AM 60.8 °F - 26.6 °F 27% 29.91 in 10.0 mi WSW 6.9 mph 16.1 mph N/A   Scattered Clouds
12:15 PM 60.8 °F - 26.6 °F 27% 29.91 in 10.0 mi WSW 11.5 mph - N/A   Clear
12:35 PM 57.2 °F - 26.6 °F 31% 29.90 in 10.0 mi NNW 10.4 mph - N/A   Clear
12:55 PM 55.4 °F - 26.6 °F 33% 29.89 in 10.0 mi NW 6.9 mph - N/A   Clear
1:15 PM 55.4 °F - 26.6 °F 33% 29.88 in 10.0 mi North 5.8 mph - N/A   Clear
1:35 PM 55.4 °F - 26.6 °F 33% 29.87 in 10.0 mi NNW 6.9 mph - N/A   Clear
1:55 PM 55.4 °F - 26.6 °F 33% 29.87 in 10.0 mi North 8.1 mph - N/A   Clear
2:15 PM 55.4 °F - 26.6 °F 33% 29.86 in 10.0 mi NNW 9.2 mph - N/A   Clear
2:35 PM 57.2 °F - 26.6 °F 31% 29.87 in 10.0 mi North 8.1 mph - N/A   Clear
2:55 PM 55.4 °F - 26.6 °F 33% 29.86 in 10.0 mi North 4.6 mph - N/A   Clear
3:15 PM 55.4 °F - 26.6 °F 33% 29.85 in 10.0 mi NNW 8.1 mph - N/A   Clear
3:35 PM 55.4 °F - 26.6 °F 33% 29.85 in 10.0 mi North 8.1 mph - N/A   Clear
3:55 PM 55.4 °F - 26.6 °F 33% 29.85 in 10.0 mi North 8.1 mph - N/A   Clear
4:15 PM 57.2 °F - 26.6 °F 31% 29.86 in 10.0 mi North 5.8 mph - N/A   Clear
4:35 PM 55.4 °F - 26.6 °F 33% 29.86 in 10.0 mi NNW 9.2 mph - N/A   Clear
4:55 PM 55.4 °F - 28.4 °F 36% 29.87 in 10.0 mi North 6.9 mph - N/A   Scattered Clouds
5:10 PM 55.4 °F - 28.4 °F 36% 29.87 in 10.0 mi North 5.8 mph - N/A   Scattered Clouds
5:35 PM 53.6 °F - 28.4 °F 38% 29.87 in 10.0 mi North 4.6 mph - N/A   Scattered Clouds
5:55 PM 51.8 °F - 28.4 °F 41% 29.88 in 10.0 mi North 8.1 mph - N/A   Clear
6:15 PM 50.0 °F - 28.4 °F 43% 29.89 in 10.0 mi North 5.8 mph - N/A   Scattered Clouds
6:35 PM 50.0 °F - 30.2 °F 47% 29.91 in 10.0 mi NNW 5.8 mph - N/A   Overcast
6:55 PM 50.0 °F - 30.2 °F 47% 29.91 in 10.0 mi NNW 5.8 mph - N/A   Overcast
7:15 PM 48.2 °F - 28.4 °F 46% 29.92 in 10.0 mi North 5.8 mph - N/A   Mostly Cloudy
7:35 PM 48.2 °F - 28.4 °F 46% 29.93 in 10.0 mi NNE 5.8 mph - N/A   Mostly Cloudy
7:55 PM 48.2 °F - 28.4 °F 46% 29.94 in 10.0 mi NNE 5.8 mph - N/A   Overcast
8:15 PM 46.4 °F 43.5 °F 30.2 °F 53% 29.95 in 10.0 mi NNE 5.8 mph - N/A   Overcast
8:35 PM 46.4 °F 43.5 °F 32.0 °F 57% 29.97 in 10.0 mi North 5.8 mph - N/A   Overcast
8:55 PM 46.4 °F 42.4 °F 33.8 °F 62% 29.97 in 10.0 mi North 8.1 mph - N/A   Overcast
9:15 PM 44.6 °F 40.7 °F 33.8 °F 66% 29.99 in 10.0 mi North 6.9 mph - N/A   Overcast
9:35 PM 42.8 °F 37.0 °F 33.8 °F 70% 29.99 in 10.0 mi North 10.4 mph - N/A   Mostly Cloudy
9:55 PM 42.8 °F 39.3 °F 33.8 °F 70% 30.00 in 10.0 mi North 5.8 mph - N/A   Clear
10:15 PM 41.0 °F 35.2 °F 33.8 °F 76% 30.00 in 10.0 mi NNE 9.2 mph 16.1 mph N/A   Clear
10:35 PM 41.0 °F 35.8 °F 33.8 °F 76% 30.00 in 10.0 mi NNE 8.1 mph - N/A   Clear
10:55 PM 37.4 °F 30.8 °F 33.8 °F 87% 30.00 in 10.0 mi North 9.2 mph - N/A   Clear
11:15 PM 37.4 °F 33.8 °F 32.0 °F 81% 30.00 in 10.0 mi NNE 4.6 mph - N/A   Clear
11:35 PM 35.6 °F 29.2 °F 32.0 °F 87% 30.00 in 10.0 mi NNE 8.1 mph - N/A   Clear
11:55 PM 35.6 °F 28.0 °F 32.0 °F 87% 30.01 in 10.0 mi NNE 10.4 mph - N/A   Clear